When you browse on this site, cookies collect data to enhance your experience and personalize the content and advertising you see.
Visit our Privacy Policy to learn more. By continuing to use the site, you agree to this use of cookies and data.
  • In Italy
  • List of Countries
  • For 7 days
  • Water Temperature
  • Satellite Maps
  • Weather Map
  • Weather Widgets
  • user-avatar
    Login

    Hourly Weather Qala i Naw

    Today, 18 June, Tuesday

    Time Temperature Precipitation Wind Pressure Humidity
    00:00 +24°C° 0 mm 1 mps 679 mmHg 19%
    01:00 +23°C° 0 mm 1 mps 678 mmHg 19%
    02:00 +22°C° 0 mm 1 mps 678 mmHg 20%
    03:00 +22°C° 0 mm 1 mps 678 mmHg 21%
    04:00 +19°C° 0 mm 0 mps 678 mmHg 21%
    05:00 +23°C° 0 mm 1 mps 678 mmHg 18%
    06:00 +25°C° 0 mm 1 mps 679 mmHg 16%
    07:00 +27°C° 0 mm 1 mps 680 mmHg 13%
    08:00 +29°C° 0 mm 2 mps 680 mmHg 12%
    09:00 +30°C° 0 mm 4 mps 680 mmHg 12%
    10:00 +33°C° 0 mm 5 mps 680 mmHg 12%
    11:00 +34°C° 0 mm 6 mps 680 mmHg 12%
    12:00 +35°C° 0 mm 7 mps 680 mmHg 12%
    13:00 +37°C° 0 mm 8 mps 680 mmHg 11%
    14:00 +37°C° 0 mm 8 mps 679 mmHg 12%
    15:00 +37°C° 0 mm 9 mps 679 mmHg 12%
    16:00 +35°C° 0 mm 9 mps 679 mmHg 12%
    17:00 +34°C° 0 mm 8 mps 679 mmHg 13%
    18:00 +32°C° 0 mm 7 mps 679 mmHg 14%
    19:00 +30°C° 0 mm 6 mps 679 mmHg 16%
    20:00 +28°C° 0 mm 5 mps 679 mmHg 17%
    21:00 +27°C° 0 mm 3 mps 679 mmHg 19%
    22:00 +25°C° 0 mm 2 mps 678 mmHg 20%
    23:00 +24°C° 0 mm 2 mps 678 mmHg 22%

    Tomorrow, 19 June, Wednesday

    Time Temperature Precipitation Wind Pressure Humidity
    00:00 +23°C° 0 mm 1 mps 677 mmHg 23%
    01:00 +22°C° 0 mm 1 mps 677 mmHg 24%
    02:00 +19°C° 0 mm 0 mps 677 mmHg 25%
    03:00 +19°C° 0 mm 0 mps 676 mmHg 26%
    04:00 +18°C° 0 mm 0 mps 676 mmHg 27%
    05:00 +21°C° 0 mm 0 mps 677 mmHg 24%
    06:00 +25°C° 0 mm 1 mps 677 mmHg 20%
    07:00 +27°C° 0 mm 1 mps 678 mmHg 17%
    08:00 +29°C° 0 mm 2 mps 678 mmHg 15%
    09:00 +31°C° 0 mm 3 mps 678 mmHg 14%
    10:00 +33°C° 0 mm 4 mps 678 mmHg 13%
    11:00 +34°C° 0 mm 5 mps 678 mmHg 12%
    12:00 +35°C° 0 mm 6 mps 678 mmHg 12%
    13:00 +37°C° 0 mm 8 mps 678 mmHg 11%
    14:00 +37°C° 0 mm 8 mps 678 mmHg 12%
    15:00 +37°C° 0 mm 9 mps 678 mmHg 12%
    16:00 +37°C° 0 mm 9 mps 678 mmHg 12%
    17:00 +35°C° 0 mm 8 mps 678 mmHg 13%
    18:00 +33°C° 0 mm 7 mps 678 mmHg 14%
    19:00 +30°C° 0 mm 6 mps 678 mmHg 15%
    20:00 +29°C° 0 mm 5 mps 678 mmHg 17%
    21:00 +28°C° 0 mm 4 mps 678 mmHg 19%
    22:00 +26°C° 0 mm 3 mps 678 mmHg 21%
    23:00 +25°C° 0 mm 3 mps 678 mmHg 23%

    Day after tomorrow, 20 June, Thursday

    Time Temperature Precipitation Wind Pressure Humidity
    00:00 +24°C° 0 mm 2 mps 678 mmHg 25%
    01:00 +23°C° 0 mm 1 mps 678 mmHg 27%
    02:00 +23°C° 0 mm 1 mps 677 mmHg 28%
    03:00 +23°C° 0 mm 1 mps 677 mmHg 28%
    04:00 +22°C° 0 mm 1 mps 677 mmHg 28%
    05:00 +24°C° 0 mm 2 mps 678 mmHg 25%
    06:00 +27°C° 0 mm 2 mps 678 mmHg 22%
    07:00 +29°C° 0 mm 2 mps 679 mmHg 20%
    08:00 +30°C° 0 mm 4 mps 679 mmHg 18%
    09:00 +33°C° 0 mm 5 mps 680 mmHg 16%
    10:00 +35°C° 0 mm 7 mps 680 mmHg 15%
    11:00 +37°C° 0 mm 8 mps 680 mmHg 14%
    12:00 +37°C° 0 mm 8 mps 680 mmHg 13%
    13:00 +38°C° 0 mm 9 mps 679 mmHg 12%
    14:00 +38°C° 0 mm 9 mps 679 mmHg 12%
    15:00 +37°C° 0 mm 9 mps 679 mmHg 12%
    16:00 +37°C° 0 mm 8 mps 679 mmHg 13%
    17:00 +35°C° 0 mm 7 mps 679 mmHg 13%
    18:00 +33°C° 0 mm 6 mps 679 mmHg 14%
    19:00 +30°C° 0 mm 5 mps 679 mmHg 15%
    20:00 +29°C° 0 mm 4 mps 679 mmHg 17%
    21:00 +27°C° 0 mm 3 mps 679 mmHg 19%
    22:00 +26°C° 0 mm 2 mps 679 mmHg 21%
    23:00 +25°C° 0 mm 2 mps 678 mmHg 22%

    21 June, Friday

    Time Temperature Precipitation Wind Pressure Humidity
    00:00 +24°C° 0 mm 1 mps 678 mmHg 23%
    01:00 +23°C° 0 mm 1 mps 678 mmHg 23%
    02:00 +23°C° 0 mm 1 mps 678 mmHg 24%
    03:00 +22°C° 0 mm 1 mps 678 mmHg 25%
    04:00 +22°C° 0 mm 1 mps 677 mmHg 25%
    05:00 +24°C° 0 mm 1 mps 678 mmHg 22%
    06:00 +26°C° 0 mm 1 mps 679 mmHg 19%
    07:00 +29°C° 0 mm 2 mps 680 mmHg 15%
    08:00 +30°C° 0 mm 3 mps 680 mmHg 14%
    09:00 +33°C° 0 mm 5 mps 680 mmHg 13%
    10:00 +34°C° 0 mm 6 mps 680 mmHg 11%
    11:00 +35°C° 0 mm 7 mps 680 mmHg 11%
    12:00 +36°C° 0 mm 7 mps 680 mmHg 10%
    13:00 +38°C° 0 mm 8 mps 679 mmHg 10%
    14:00 +38°C° 0 mm 8 mps 679 mmHg 10%
    15:00 +37°C° 0 mm 9 mps 679 mmHg 10%
    16:00 +37°C° 0 mm 9 mps 679 mmHg 11%
    17:00 +34°C° 0 mm 8 mps 679 mmHg 12%
    18:00 +33°C° 0 mm 6 mps 679 mmHg 13%
    19:00 +30°C° 0 mm 5 mps 679 mmHg 14%
    20:00 +29°C° 0 mm 4 mps 679 mmHg 15%
    21:00 +27°C° 0 mm 4 mps 679 mmHg 16%
    22:00 +26°C° 0 mm 3 mps 679 mmHg 17%
    23:00 +25°C° 0 mm 2 mps 679 mmHg 18%

    22 June, Saturday

    Time Temperature Precipitation Wind Pressure Humidity
    00:00 +24°C° 0 mm 2 mps 679 mmHg 19%
    01:00 +23°C° 0 mm 1 mps 678 mmHg 20%
    02:00 +23°C° 0 mm 1 mps 678 mmHg 21%
    03:00 +22°C° 0 mm 1 mps 678 mmHg 22%
    04:00 +21°C° 0 mm 1 mps 678 mmHg 23%
    05:00 +24°C° 0 mm 1 mps 679 mmHg 20%
    06:00 +26°C° 0 mm 1 mps 679 mmHg 18%
    07:00 +28°C° 0 mm 1 mps 680 mmHg 15%
    08:00 +30°C° 0 mm 3 mps 680 mmHg 14%
    09:00 +33°C° 0 mm 5 mps 681 mmHg 13%
    10:00 +35°C° 0 mm 7 mps 681 mmHg 11%
    11:00 +37°C° 0 mm 8 mps 681 mmHg 11%
    12:00 +37°C° 0 mm 9 mps 681 mmHg 11%
    13:00 +38°C° 0 mm 10 mps 681 mmHg 10%
    14:00 +38°C° 0 mm 10 mps 681 mmHg 11%
    15:00 +38°C° 0 mm 10 mps 680 mmHg 11%
    16:00 +38°C° 0 mm 10 mps 680 mmHg 11%
    17:00 +35°C° 0 mm 9 mps 680 mmHg 12%
    18:00 +33°C° 0 mm 8 mps 681 mmHg 14%
    19:00 +32°C° 0 mm 7 mps 681 mmHg 15%
    20:00 +29°C° 0 mm 6 mps 681 mmHg 16%
    21:00 +28°C° 0 mm 4 mps 681 mmHg 18%
    22:00 +26°C° 0 mm 3 mps 681 mmHg 20%
    23:00 +25°C° 0 mm 2 mps 680 mmHg 22%

    23 June, Sunday

    Time Temperature Precipitation Wind Pressure Humidity
    00:00 +24°C° 0 mm 2 mps 680 mmHg 23%
    01:00 +23°C° 0 mm 1 mps 680 mmHg 25%
    02:00 +23°C° 0 mm 1 mps 679 mmHg 26%
    03:00 +22°C° 0 mm 1 mps 679 mmHg 26%
    04:00 +21°C° 0 mm 1 mps 679 mmHg 27%
    05:00 +24°C° 0 mm 1 mps 680 mmHg 24%
    06:00 +26°C° 0 mm 1 mps 680 mmHg 21%
    07:00 +28°C° 0 mm 1 mps 681 mmHg 18%
    08:00 +29°C° 0 mm 3 mps 681 mmHg 16%
    09:00 +32°C° 0 mm 5 mps 681 mmHg 15%
    10:00 +34°C° 0 mm 6 mps 681 mmHg 14%
    11:00 +34°C° 0 mm 7 mps 681 mmHg 13%
    12:00 +35°C° 0 mm 8 mps 681 mmHg 12%
    13:00 +37°C° 0 mm 8 mps 681 mmHg 11%
    14:00 +37°C° 0 mm 9 mps 680 mmHg 11%
    15:00 +37°C° 0 mm 9 mps 680 mmHg 10%
    16:00 +37°C° 0 mm 10 mps 680 mmHg 10%
    17:00 +34°C° 0 mm 9 mps 680 mmHg 11%
    18:00 +32°C° 0 mm 8 mps 680 mmHg 12%
    19:00 +30°C° 0 mm 7 mps 680 mmHg 12%
    20:00 +28°C° 0 mm 5 mps 680 mmHg 14%
    21:00 +26°C° 0 mm 3 mps 680 mmHg 16%
    22:00 +24°C° 0 mm 2 mps 680 mmHg 18%
    23:00 +24°C° 0 mm 2 mps 679 mmHg 19%
    Show more